www.pogodaiklimat.ru

Погода и климат >> Архив погоды >> Россия >> Красноярский край >> Северо-Енисейский


АРХИВ ПОГОДЫ в Северо-Енисейском

Время (UTC), дата Ветер
(напр.,м/с)
 
Видим.   Явления Облачность Т
(С)
Тd
(С)
f
(%)
Тe
(С)
Тes
(С)
Комфортность P
(гПа)
Po
(гПа)
Тmin
(С)
Tmax
(С)
R
(мм)
R24
(мм)
S
(см)
00 13.09 З 3 10 км слаб. ливневой снег {метель} 10/6 300 м
[Cb calv As op]
-5.0 -6.0 93 -11 -11 1009.4 946.2 -5.1 6 8
03 13.09 З 5
{10}
2000 м ливневой снег {метель} 10/10 200 м
[Cb calv]
-2.8 -3.8 93 -10 -10 1005.1 942.7
06 13.09 З 5
{12}
2000 м ливневой снег {метель} 10/10 200 м
[Cb calv]
-1.4 -2.2 94 -8 -8 1003.9 941.8
09 13.09 З 7
{14}
2000 м ливневой снег {метель} 10/10 200 м
[Cb calv]
-0.8 -1.5 95 -8 -8 1004.2 942.3
12 13.09 З 6
{14}
2000 м ливневой снег {метель} 10/10 200 м
[Cb calv]
-0.7 -1.1 97 -8 -8 1004.8 942.9 -0.7 12
15 13.09 СЗ 4
{10}
н/о ливневой снег {метель} 10/10 200 м
[Cb calv]
-0.4 -1.0 96 -6 -6 1005.7 943.8
18 13.09 СВ 2 н/о слаб. ливневой снег {метель} 10/10 200 м
[Cb calv]
-2.7 -3.1 97 -7 -7 1009.6 946.9
21 13.09 штиль 0 н/о {ливн. осадки} 9/5 300 м
[Cb calv Ac trans Ci fib]
-6.8 -7.7 93 -8 -8 1012.4 948.5
00 14.09 ЮЗ 1 50 км {ливн. осадки} 10/8 300 м
[Cb calv As op]
-4.5 -5.1 96 -7 -7 1013.6 950.2 -8.8 9 23
03 14.09 З 2 2000 м дымка {ливн. осадки} 10/10 200 м
[Cb calv]
-0.8 -1.2 97 -5 -5 1013.7 951.2
06 14.09 З 3 20 км {ливн. осадки} 10/10 300 м
[Cb calv]
+1.0 +0.5 96 -4 -4 1014.5 952.3
09 14.09 З 3 50 км в посл. час ливневой снег 9/8 300 м
[Cb calv Ac trans]
+1.8 +0.5 91 -3 -2 1014.7 952.7
12 14.09 ЮЗ 1 50 км {ливн. осадки} 9/6 300 м
[Cb calv Ac As]
+1.1 +0.3 94 -1 -1 1015.0 952.7 +3.1 0.6
15 14.09 штиль 0 н/о 9/8 300 м
[Cb calv Ac As]
+0.5 -0.1 96 -1 -1 1013.8 951.5
18 14.09 ЮЗ 1 н/о 9/8 300 м
[Cb calv Ac As]
+0.4 -0.2 96 -2 -2 1012.6 950.4
21 14.09 ЮЗ 1 н/о 9/8 300 м
[Cb calv Ac As]
-0.3 -0.6 98 -3 -3 1012.1 950.1
00 15.09 штиль 0 20 км слаб. ливневой снег 9/8 300 м
[Cb calv Ac As]
-0.3 -0.9 96 -2 -2 1012.3 950.0 -0.8 0.0 10
03 15.09 С 1 20 км слаб. ливневой снег 10/10 300 м
[Cb calv]
+1.0 -0.1 92 -1 -1 1011.3 949.3
06 15.09 СЗ 1 20 км слаб. ливневой снег 10/10 300 м
[Cb calv]
+2.7 0.0 82 +1 +1 1011.1 949.5
09 15.09 СЗ 2 50 км {ливн. осадки} 8/3 300 м
[Cb calv Ac trans]
+3.6 -1.4 70 +1 +2 1011.5 950.0
12 15.09 СЗ 2 50 км {ливн. осадки} 3/3 600 м
[Cb calv]
+3.2 -1.9 69 +1 +1 1012.7 951.0 +4.1 0.0
15 15.09 штиль 0 н/о 3/3 600 м
[Cb calv]
-0.8 -2.7 87 -2 -2 1015.6 952.9
18 15.09 штиль 0 н/о ясно -3.9 -4.4 96 -5 -5 1016.7 953.3
21 15.09 штиль 0 н/о ясно -4.7 -5.3 96 -6 -6 1018.6 954.8
00 16.09 штиль 0 50 км 6/0
[Ci fib]
-4.8 -5.4 96 -6 -6 1019.8 955.9 -5.0 6
03 16.09 ЮЗ 1 50 км 9/0
[Ac trans Ci fib]
+2.4 -1.9 73 +1 +3 1019.0 956.8
06 16.09 ЮЗ 1 50 км 10/0
[As op]
+4.5 -0.9 68 +3 +5 1018.5 956.8
09 16.09 ЮЗ 3 10 км слаб. снег {дождь} 10/4 300 м
[Frnb As op]
+1.9 +0.3 89 -2 -2 1019.3 957.0
12 16.09 ЮЗ 2 50 км {снег, дождь} 10/6 300 м
[Cb calv As op]
+1.5 +0.4 92 -2 -2 1018.0 955.7 +4.6 2
15 16.09 ЮЗ 2 н/о 10/10 300 м
[Cb calv]
+2.3 +1.5 94 -1 -1 1017.8 955.7
18 16.09 ЮЗ 3 н/о гроза, ливневой дождь 10/10 200 м
[Cb cap]
+3.7 +3.5 99 -0 -0 1017.3 955.5
21 16.09 ЮЗ 2 н/о слаб. ливневой дождь {гроза} туман ?/? +4.7 +4.5 99 +2 +2 1017.1 955.6
00 17.09 Ю 2 500 м туман {гроза, ливн. осадки} ?/? +5.7 +5.5 99 +3 +3 1016.3 955.1 +1.3 4 0
03 17.09 ЮЗ 2 500 м туман ?/? +7.9 +7.5 97 +6 +6 1016.1 955.4
06 17.09 ЮЗ 3 20 км {туман} 10/10 200 м
[Cb calv]
+11.6 +9.6 88 +10 +10 1013.6 953.8
09 17.09 ЮЗ 2 20 км 9/9 200 м
[Cb calv]
+13.0 +10.5 85 +12 +12 1012.9 953.5
12 17.09 ЮЗ 2 50 км 3/3 300 м
[Cb calv]
+13.2 +9.5 78 +13 +13 1012.4 953.0 +14.2
15 17.09 ЮЗ 2 н/о 3/3 600 м
[Cb calv]
+11.2 +8.8 85 +10 +10 1012.1 952.4
18 17.09 Ю 2 н/о слаб. ливневой дождь 10/10 300 м
[Cb calv]
+10.3 +9.1 92 +9 +9 1011.6 951.6
21 17.09 ЮЗ 1 н/о {ливн. осадки} 3/3 300 м
[Cb calv]
+9.4 +8.4 93 +9 +9 1008.9 948.9
00 18.09 ЮЗ 2 50 км {ливн. осадки} 9/8 300 м
[Cb calv Ac trans]
+9.8 +8.4 91 +8 +8 1007.6 947.8 +8.8 3
03 18.09 З 7
{11}
10 км слаб. ливневой дождь 10/10 300 м
[Cb calv]
+10.0 +9.0 93 +6 +6 1006.6 947.0
06 18.09 З 5
{10}
50 км {ливн. осадки} 9/8 300 м
[Cb calv Ac trans]
+10.8 +8.4 85 +8 +8 1009.3 949.6
09 18.09 З 3 50 км 10/10 300 м
[Cb calv]
+10.0 +7.3 83 +8 +8 1011.0 951.0
12 18.09 ЮЗ 3 50 км 9/6 300 м
[Cb calv Ac trans]
+9.4 +6.8 84 +7 +7 1011.8 951.6 +10.9 1
15 18.09 З 3 н/о {ливн. осадки} 5/5 300 м
[Cb calv]
+7.7 +6.8 94 +5 +5 1013.2 952.5
18 18.09 Ю 1 н/о {ливн. осадки} 9/3 300 м
[Cb calv Ac trans]
+6.7 +6.0 95 +6 +6 1014.9 953.9
21 18.09 штиль 0 н/о дымка 5/0
[Ac trans]
+3.7 +3.2 97 +2 +2 1015.3 953.7
00 19.09 ЮЗ 1 4000 м в посл. час ливневой дождь 10/10 300 м
[Cb calv]
+6.4 +5.7 95 +5 +5 1015.0 954.0 +3.6 2
03 19.09 Ю 2 50 км 9/3 300 м
[Cb calv Ac trans]
+8.9 +7.9 93 +7 +8 1014.3 953.9
06 19.09 Ю 3 20 км слаб. ливневой дождь 10/8 300 м
[Cb calv As trans]
+11.3 +8.3 82 +9 +10 1012.5 952.7
09 19.09 Ю 2 20 км слаб. ливневой дождь 10/8 300 м
[Cb calv As trans]
+10.0 +8.8 92 +8 +9 1010.2 950.3
12 19.09 ЮЗ 4 4000 м слаб. ливневой дождь 10/10 300 м
[Cb calv]
+10.3 +8.9 91 +8 +8 1008.3 948.5 +11.5 2
15 19.09 З 5
{13}
н/о {ливн. осадки} 10/10 300 м
[Cb calv]
+11.7 +10.1 90 +9 +9 1007.1 947.7
18 19.09 З 5
{10}
н/о {ливн. осадки} 10/10 300 м
[Cb calv]
+11.6 +9.8 89 +9 +9 1007.8 948.4
21 19.09 З 4
{10}
н/о 9/4 300 м
[Cb calv Ac trans]
+9.8 +7.9 88 +7 +7 1008.7 948.8

 

Местоположение метеостанции Северо-Енисейский (Красноярский край, Россия): широта 60.38 долгота 93.03 высота над уровнем моря 511 м.

В архиве по умолчанию представлена погода в Северо-Енисейском за последнюю неделю. Архивные данные за месяц целиком и за предыдущие месяцы, начиная с января 2011 года, Вы можете получить, выбрав интересующий диапазон дат из раскрывающегося списка и нажав кнопку "Ввод!".


*Определитесь, кто Вы:
робот инопланетянин человек

Внимание! Время в таблицах - всемирное. Для получения местного времени необходимо прибавить поправку, которая равна 7 ч.

Смотрите также архив погоды в соседних городах и на ближайших метеорологических станциях:

Погода в Вельмо (Красноярский край, Россия) (74 км)
Погода в Назимово (Красноярский край, Россия) (149 км)
Погода в Ярцево (Красноярский край, Россия) (155 км)
Погода в Ворогово (Красноярский край, Россия) (199 км)
Погода в Бору (Красноярский край, Россия) (212 км)
Погода в Енисейске (Красноярский край, Россия) (220 км)
Погода в Кузьмовке (Эвенкия, Россия) (221 км)
Погода в Байките (Эвенкия, Россия) (230 км)
Погода в Александровском Шлюзе (Красноярский край, Россия) (234 км)
Погода в Усть-Камо (Эвенкия, Россия) (248 км)

Пояснения к столбцам:

Ветер - указаны скорость ветра в м/с - средняя за 10 мин, порывы в срок и между сроками (в фигурных скобках) и направление, откуда дует ветер: С - северный, СВ - северо-восточный, В - восточный, ЮВ - юго-восточный, Ю - южный, ЮЗ - юго-западный, З - западный, СЗ - северо-западный.
Видимость - горизонтальная дальность видимости в метрах или километрах. При видимости от 1 до 10 км при отсутствии осадков обычно наблюдается дымка, при ухудшении видимости до 1 км и менее - туман. В сухую погоду видимость может ухудшаться дымом, пылью или мглою.
Явления - указаны атмосферные явления, наблюдавшиеся в срок или в последний час перед сроком; фигурными скобками обозначены явления, наблюдавшиеся между сроками (за 1-3 часа до срока); квадратными скобками обозначены град или гололедные отложения с указанием их диаметра в мм.
Облачность - указаны через наклонную черту общая и нижняя облачность в баллах и высота нижней границы облаков в метрах; квадратными скобками обозначены формы облаков: Ci - перистые, Cs - перисто-слоистые, Cc - перисто-кучевые, Ac - высококучевые, As - высокослоистые, Sc - слоисто-кучевые, Ns - слоисто-дождевые, Cu - кучевые, Cb - кучево-дождевые. Подробнее классификацию облаков см. в Атласе облаков (PDF).
T - Температура воздуха - температура, измеренная на высоте 2 м над землей.
Td - Температура точки росы - температура, при понижении до которой содержащийся в воздухе водяной пар достигнет насыщения.
f - Относительная влажность воздуха - влажноcть воздуха, измеренная на высоте 2 м над землей.
Te - Эффективная температура - температура, которую ощущает одетый по сезону человек в тени. Характеристика душности погоды. При расчете учитывается влияние влажности воздуха и скорости ветра на теплоощущения человека.
Tes - Эффективная температура на солнце - температура, которую ощущает человек, с поправкой на солнечный нагрев. Характеристика знойности погоды. Зависит от высоты солнца над горизонтом, облачности и скорости ветра. Ночью, в пасмурную погоду, а также при ветре 12 м/с и более поправка равна нулю.
P - Атмосферное давление - приведенное к уровню моря атмосферное давление.
Po - Атмосферное давление - измеренное на уровне метеостанции атмосферное давление.
Tmin - Минимальная температура - минимум температуры воздуха на высоте 2 м над землей.
Tmax - Максимальная температура - максимум температуры воздуха на высоте 2 м над землей.
R - Количество осадков - Количество выпавших осадков за период времени, мм. При наведении курсора мыши на число - период времени, за который выпало указанное количество осадков.
R24 - Количество осадков - Количество выпавших осадков за 24 часа, мм.
S - Снежный покров - Высота снежного покрова, см. При наведении курсора мыши на число - состояние снежного покрова и степень покрытия местности в баллах.